KPAEKOLM

Guest
Details From KPAE - Snohomish Co
To KOLM - Olympia
Flight Number -
Tags Decoded
Created
Modified
Stats Distance 62 nm / 115 km
Max Altitude 0 ft / 0 m
Waypoints 2
Social Downloads 0
Likes 0
Share VATSIM

Download

Looking for another format? Having issues loading an existing format? Contact us
Advertisement - Login to hide

Notes

Decoded

Route

KPAE KOLM

ID Type Via Altitude Latitude Longitude Leg Dist Tot Dist Heading (true) Name
O KPAE APT - 0 ft / 0 m 47.90642˚ -122.27170˚ - 0 nm - -
O KOLM APT - 0 ft / 0 m 46.97116˚ -122.90824˚ 61 nm 61 nm 205° / 204° -

Altitude Profile

Advertisement - Login to hide

KPAE

Details ICAO KPAE (PAE)
Name SNOHOMISH CO
Region United States
Timezone America/Los_Angeles (UTC-7.0)
Stats Elevation 606 ft / 185 m (AMSL)
Location 47.905980° -122.279142°
Runways 3
Magnetic Variation 15.724° E

METAR

KPAE 242253Z 25007KT 10SM CLR 18/11 A3007 RMK AO2 SLP181 T01780111

Decode

TAF

TAF KPAE 241738Z 2418/2518 23004KT P6SM SCT015 BKN025 FM242100 26006KT P6SM SCT025 SCT035 FM242300 32005KT P6SM SCT035

Decode

Departure Runways

ID Width Length Bearing (true) Bearing (mag) Surface Threshold Offset Overrun Length
11 75 ft / 23 m 4,508 ft / 1,374 m 134.22° 118.50° Asphalt 801 ft / 244 m 0 ft / 0 m
16L 75 ft / 23 m 3,000 ft / 915 m 179.56° 163.84° Asphalt 0 ft / 0 m 0 ft / 0 m
16R 151 ft / 46 m 9,404 ft / 2,867 m 179.13° 163.41° Asphalt 400 ft / 122 m 220 ft / 67 m
29 75 ft / 23 m 4,508 ft / 1,374 m 314.23° 298.51° Asphalt 0 ft / 0 m 0 ft / 0 m
34L 151 ft / 46 m 9,404 ft / 2,867 m 359.13° 343.41° Asphalt 0 ft / 0 m 404 ft / 123 m
34R 75 ft / 23 m 3,000 ft / 915 m 359.56° 343.84° Asphalt 0 ft / 0 m 0 ft / 0 m

KOLM

Details ICAO KOLM (OLM)
Name OLYMPIA
Region United States
Timezone America/Los_Angeles (UTC-7.0)
Stats Elevation 209 ft / 64 m (AMSL)
Location 46.969312° -122.902479°
Runways 2
Magnetic Variation 15.613° E

METAR

KOLM 242254Z VRB04KT 10SM SCT029 19/12 A3006 RMK AO2 SLP178 T01940117

Decode

TAF

KOLM 241746Z 2418/2518 22006KT P6SM OVC020 FM242000 22006KT P6SM BKN030 FM242200 23006KT P6SM SCT035 FM250000 28009KT P6SM SCT040 FM250600 VRB03KT P6SM SCT020 BKN035 FM251200 VRB03KT P6SM BKN015 OVC025

Decode

Destination Runways

ID Width Length Bearing (true) Bearing (mag) Surface Threshold Offset Overrun Length
08 151 ft / 46 m 4,147 ft / 1,264 m 103.71° 88.10° Asphalt 0 ft / 0 m 0 ft / 0 m
17 151 ft / 46 m 5,503 ft / 1,677 m 191.27° 175.66° Asphalt 0 ft / 0 m 600 ft / 183 m
26 151 ft / 46 m 4,147 ft / 1,264 m 283.72° 268.11° Asphalt 0 ft / 0 m 0 ft / 0 m
35 151 ft / 46 m 5,503 ft / 1,677 m 11.27° 355.66° Asphalt 0 ft / 0 m 0 ft / 0 m

Approach Navaids

Runway Type Ident Frequency Range Bearing (true) Bearing (mag) Slope Elevation
17 Localiser IOLM 111.90 MHz 18 nm / 33 km 191.30° 175.69° - 200 ft / 61 m (AMSL)
17 Glidescope IOLM 111.90 MHz 10 nm / 19 km 191.30° 175.69° 3.00° 192 ft / 59 m (AMSL)

Popular Alternatives